Location: Unspecified
(0.0000°N, 0.0000°E)
Time: 06:07:54
(UTC+00:00)

Transit 4A - Pass Details

Date: 09 October 2020
Orbit: 862 x 982 km, 66.8° (Epoch: 28 October)

Event Time Altitude Azimuth Distance (km) Brightness Sun altitude
Rises 06:12:51 0° 334° (NNW) 3,638 10.7 6.4°
Reaches altitude 10° 06:15:27 10° 331° (NNW) 2,681 10.0 7.0°
Maximum altitude 06:21:37 64° 251° (WSW) 1,029 8.1 8.5°
Drops below altitude 10° 06:27:39 10° 170° (S) 2,610 10.5 10.0°
Sets 06:30:09 0° 167° (SSE) 3,535 11.2 10.7°
